Flag for Russia Weather past 2 weeks in Sochi, Russia

Now
79 °F

Overcast.


Feels Like: 82 °F
Forecast: 76 / 91 °F
Wind: 6 mph from East

Location: Adler

Current Time: Aug 2, 2015 at 3:25:53 AM

Latest Report: Aug 2, 2015 at 3:00 AM


Visibility: N/A

Pressure: 29.92 "Hg

Humidity: 84%

Dew point: 73 °F

Location of SochiLocation

Historic Weather in Sochi — Graph

°F

Sochi temperature yesterday

Maximum temperature yesterday: 88 °F (at 11:30 AM)
Minimum temperature yesterday: 75 °F (at 3:30 AM)
Average temperature yesterday: 82 °F

Past Weeks' High & Low Weather Summary

 TemperatureHumidityPressure
High90 °F (Jul 25, 9:30 AM)94% (Jul 24, 4:30 AM)30.04 "Hg (Jul 24, 4:30 AM)
Low64 °F (Jul 18, 2:30 AM)43% (Jul 25, 9:30 AM)29.62 "Hg (Jul 31, 5:00 PM)
Average78 °F73%29.83 "Hg
* Reported Jul 18 2:00 AM — Aug 2 2:30 AM, Sochi, Weather by CustomWeather, © 2015

Note: Actual official high and low records may vary slightly from our data, if they occured in-between our weather recording intervals... More about our weather records

Advertising

Sochi weather history for previous 24 hours

 ConditionsComfort  
Time TempWeatherWind HumidityBarometerVisibility
2:30 AM
Sun, Aug 2
79 °FOvercast.6 mph84%29.92 "HgN/A
2:00 AM81 °FPassing clouds.6 mph79%29.92 "HgN/A
1:00 AM79 °FOvercast.6 mph84%29.89 "HgN/A
12:30 AM81 °FOvercast.8 mph79%29.89 "HgN/A
12:00 AM79 °FOvercast.6 mph84%29.89 "HgN/A
11:30 PM
Sat, Aug 1
79 °FOvercast.6 mph84%29.89 "HgN/A
11:00 PM81 °FOvercast.6 mph79%29.89 "HgN/A
10:30 PM81 °FOvercast.8 mph79%29.89 "HgN/A
10:00 PM82 °FOvercast.3 mph74%29.89 "HgN/A
9:30 PM82 °FOvercast.1 mph74%29.86 "HgN/A
9:00 PM82 °FOvercast.6 mph74%29.86 "HgN/A
8:30 PM82 °FPartly sunny.6 mph79%29.86 "HgN/A
8:00 PM82 °FPartly sunny.3 mph74%29.83 "HgN/A
7:30 PM82 °FPartly sunny.3 mph74%29.83 "HgN/A
7:00 PM82 °FPartly sunny.6 mph74%29.83 "HgN/A
6:30 PM84 °FPartly sunny.6 mph66%29.80 "HgN/A
6:00 PM84 °FPassing clouds.6 mph70%29.80 "HgN/A
5:30 PM84 °FPassing clouds.3 mph70%29.80 "HgN/A
5:00 PM84 °FPassing clouds.6 mph70%29.77 "HgN/A
4:30 PM86 °FPassing clouds.6 mph66%29.77 "HgN/A
4:00 PM86 °FScattered clouds.6 mph66%29.77 "HgN/A
3:30 PM86 °FScattered clouds.6 mph66%29.77 "HgN/A
3:00 PM86 °FScattered clouds.8 mph70%29.77 "HgN/A
2:30 PM86 °FPassing clouds.8 mph66%29.77 "HgN/A
2:00 PM86 °FScattered clouds.10 mph70%29.77 "HgN/A
1:30 PM86 °FScattered clouds.10 mph70%29.77 "HgN/A
1:00 PM86 °FScattered clouds.8 mph70%29.77 "HgN/A
12:30 PM86 °FScattered clouds.8 mph66%29.77 "HgN/A
12:00 PM86 °FScattered clouds.8 mph70%29.77 "HgN/A
11:30 AM88 °FScattered clouds.6 mph62%29.77 "HgN/A
11:00 AM86 °FScattered clouds.6 mph66%29.77 "HgN/A
10:30 AM86 °FScattered clouds.3 mph70%29.77 "HgN/A
10:00 AM82 °FScattered clouds.3 mph74%29.77 "HgN/A
9:30 AM82 °FScattered clouds.6 mph74%29.74 "HgN/A
9:00 AM84 °FPartly sunny.3 mph74%29.74 "HgN/A
8:30 AM79 °FPartly sunny.6 mph74%29.74 "HgN/A
7:30 AM79 °FPassing clouds.8 mph74%29.74 "HgN/A
7:00 AM79 °FScattered clouds.6 mph79%29.74 "HgN/A
6:30 AM77 °FPartly sunny.8 mph79%29.74 "HgN/A
6:00 AM77 °FPassing clouds.6 mph79%29.71 "HgN/A
5:30 AM75 °FPassing clouds.6 mph83%29.71 "HgN/A
5:00 AM75 °FPassing clouds.10 mph83%29.71 "HgN/A
4:30 AM75 °FPassing clouds.10 mph83%29.71 "HgN/A
4:00 AM75 °FPassing clouds.10 mph89%29.68 "HgN/A
3:30 AM75 °FPassing clouds.8 mph89%29.68 "HgN/A
3:00 AM77 °FPassing clouds.8 mph83%29.68 "HgN/A
Weather by CustomWeather, © 2015

See weather overviewHow to use our weather pages